Time,TemperatureF,DewpointF,PressureIn,WindDirection,WindDirectionDegrees,WindSpeedMPH,WindSpeedGustMPH,Humidity,HourlyPrecipIn,Conditions,Clouds,dailyrainin,SoftwareType,DateUTC
2013-01-07 00:03:00,32.0,26.0,-100.00,West,260,7.0,13.0,78,0.00,,,-99.99,,2013-01-07 05:03:00,
2013-01-07 00:12:00,32.0,26.0,-100.00,West,260,6.0,10.0,78,0.00,,,-99.99,,2013-01-07 05:12:00,
2013-01-07 00:22:00,32.0,26.0,-100.00,WSW,250,6.0,9.0,78,0.00,,,-99.99,,2013-01-07 05:22:00,
2013-01-07 00:33:00,32.0,26.0,-100.00,West,265,7.0,12.0,78,0.00,,,-99.99,,2013-01-07 05:33:00,
2013-01-07 00:42:00,32.0,26.0,-100.00,WSW,255,6.0,12.0,78,0.00,,,-99.99,,2013-01-07 05:42:00,
2013-01-07 00:52:00,32.0,26.0,-100.00,WSW,255,7.0,11.0,78,0.00,,,-99.99,,2013-01-07 05:52:00,
2013-01-07 01:02:00,32.0,26.0,-100.00,WSW,255,7.0,11.0,78,0.00,,,-99.99,,2013-01-07 06:02:00,
2013-01-07 01:12:00,32.0,26.0,-100.00,WSW,250,9.0,15.0,78,0.00,,,-99.99,,2013-01-07 06:12:00,
2013-01-07 01:22:00,32.0,26.0,-100.00,West,270,7.0,16.0,77,0.00,,,-99.99,,2013-01-07 06:22:00,
2013-01-07 01:32:00,32.0,26.0,-100.00,SW,235,5.0,9.0,78,0.00,,,-99.99,,2013-01-07 06:32:00,
2013-01-07 01:42:00,31.0,26.0,-100.00,SW,230,5.0,9.0,78,0.00,,,-99.99,,2013-01-07 06:42:00,
2013-01-07 01:52:00,31.0,26.0,-100.00,WSW,240,7.0,12.0,79,0.00,,,-99.99,,2013-01-07 06:52:00,
2013-01-07 02:02:00,31.0,26.0,-100.00,WSW,240,6.0,9.0,79,0.00,,,-99.99,,2013-01-07 07:02:00,
2013-01-07 02:12:00,31.0,26.0,-100.00,SW,235,6.0,9.0,79,0.00,,,-99.99,,2013-01-07 07:12:00,
2013-01-07 02:22:00,31.0,25.0,-100.00,SW,235,6.0,9.0,79,0.00,,,-99.99,,2013-01-07 07:22:00,
2013-01-07 02:33:00,31.0,25.0,-100.00,WSW,240,9.0,14.0,79,0.00,,,-99.99,,2013-01-07 07:33:00,
2013-01-07 02:42:00,31.0,25.0,-100.00,SW,225,6.0,12.0,79,0.00,,,-99.99,,2013-01-07 07:42:00,
2013-01-07 02:52:00,31.0,25.0,-100.00,SW,235,7.0,12.0,80,0.00,,,-99.99,,2013-01-07 07:52:00,
2013-01-07 03:03:00,31.0,26.0,-100.00,WSW,245,6.0,9.0,81,0.00,,,-99.99,,2013-01-07 08:03:00,
2013-01-07 03:12:00,30.0,26.0,-100.00,SW,230,8.0,12.0,82,0.00,,,-99.99,,2013-01-07 08:12:00,
2013-01-07 03:22:00,30.0,26.0,-100.00,SW,230,7.0,11.0,82,0.00,,,-99.99,,2013-01-07 08:22:00,
2013-01-07 03:33:00,30.0,26.0,-100.00,SW,230,10.0,12.0,83,0.00,,,-99.99,,2013-01-07 08:33:00,
2013-01-07 03:42:00,30.0,26.0,-100.00,SW,230,6.0,9.0,84,0.00,,,-99.99,,2013-01-07 08:42:00,
2013-01-07 03:52:00,30.0,26.0,-100.00,SSW,210,8.0,11.0,84,0.00,,,-99.99,,2013-01-07 08:52:00,
2013-01-07 04:02:00,30.0,26.0,-100.00,SW,220,6.0,11.0,85,0.00,,,-99.99,,2013-01-07 09:02:00,
2013-01-07 04:12:00,30.0,26.0,-100.00,SSW,210,8.0,11.0,85,0.00,,,-99.99,,2013-01-07 09:12:00,
2013-01-07 04:22:00,30.0,27.0,-100.00,SW,220,6.0,11.0,86,0.00,,,-99.99,,2013-01-07 09:22:00,
2013-01-07 04:32:00,30.0,26.0,-100.00,SW,230,8.0,12.0,86,0.00,,,-99.99,,2013-01-07 09:32:00,
2013-01-07 04:42:00,30.0,27.0,-100.00,SW,230,7.0,11.0,86,0.00,,,-99.99,,2013-01-07 09:42:00,
2013-01-07 04:52:00,30.0,27.0,-100.00,SW,235,6.0,9.0,86,0.00,,,-99.99,,2013-01-07 09:52:00,
2013-01-07 05:02:00,30.0,27.0,-100.00,SW,225,7.0,11.0,86,0.00,,,-99.99,,2013-01-07 10:02:00,
2013-01-07 05:12:00,30.0,27.0,-100.00,SW,225,6.0,9.0,86,0.00,,,-99.99,,2013-01-07 10:12:00,
2013-01-07 05:22:00,30.0,27.0,-100.00,SW,235,4.0,7.0,87,0.00,,,-99.99,,2013-01-07 10:22:00,
2013-01-07 05:32:00,30.0,27.0,-100.00,SW,230,5.0,8.0,87,0.00,,,-99.99,,2013-01-07 10:32:00,
2013-01-07 05:42:00,30.0,27.0,-100.00,WSW,240,4.0,7.0,87,0.00,,,-99.99,,2013-01-07 10:42:00,
2013-01-07 05:52:00,30.0,27.0,-100.00,SW,225,4.0,9.0,87,0.00,,,-99.99,,2013-01-07 10:52:00,
2013-01-07 06:02:00,30.0,27.0,-100.00,SW,230,4.0,7.0,87,0.00,,,-99.99,,2013-01-07 11:02:00,
2013-01-07 06:12:00,30.0,27.0,-100.00,SW,230,4.0,6.0,87,0.00,,,-99.99,,2013-01-07 11:12:00,
2013-01-07 06:23:00,30.0,27.0,-100.00,SW,230,5.0,7.0,87,0.00,,,-99.99,,2013-01-07 11:23:00,
2013-01-07 06:33:00,30.0,27.0,-100.00,WSW,250,2.0,7.0,87,0.00,,,-99.99,,2013-01-07 11:33:00,
2013-01-07 06:43:00,30.0,27.0,-100.00,West,265,4.0,6.0,87,0.00,,,-99.99,,2013-01-07 11:43:00,
2013-01-07 06:53:00,30.0,27.0,-100.00,WSW,255,3.0,6.0,87,0.00,,,-99.99,,2013-01-07 11:53:00,
2013-01-07 07:03:00,30.0,27.0,-100.00,WSW,250,3.0,6.0,87,0.00,,,-99.99,,2013-01-07 12:03:00,
2013-01-07 07:12:00,30.0,27.0,-100.00,WSW,250,2.0,4.0,87,0.00,,,-99.99,,2013-01-07 12:12:00,
2013-01-07 07:22:00,30.0,27.0,-100.00,WSW,245,3.0,5.0,87,0.00,,,-99.99,,2013-01-07 12:22:00,
2013-01-07 07:33:00,30.0,27.0,-100.00,SW,220,2.0,6.0,87,0.00,,,-99.99,,2013-01-07 12:33:00,
2013-01-07 07:43:00,30.0,27.0,-100.00,SW,230,3.0,6.0,87,0.00,,,-99.99,,2013-01-07 12:43:00,
2013-01-07 07:52:00,30.0,27.0,-100.00,SW,230,4.0,7.0,87,0.00,,,-99.99,,2013-01-07 12:52:00,
2013-01-07 08:03:00,30.0,27.0,-100.00,SW,225,2.0,6.0,87,0.00,,,-99.99,,2013-01-07 13:03:00,
2013-01-07 08:12:00,30.0,27.0,-100.00,SW,235,4.0,6.0,87,0.00,,,-99.99,,2013-01-07 13:12:00,
2013-01-07 08:23:00,30.0,27.0,-100.00,SW,230,4.0,6.0,87,0.00,,,-99.99,,2013-01-07 13:23:00,
2013-01-07 08:33:00,30.0,27.0,-100.00,SW,225,5.0,7.0,87,0.00,,,-99.99,,2013-01-07 13:33:00,
2013-01-07 08:42:00,30.0,27.0,-100.00,SW,230,4.0,7.0,86,0.00,,,-99.99,,2013-01-07 13:42:00,
2013-01-07 08:52:00,30.0,27.0,-100.00,SSW,210,4.0,6.0,86,0.00,,,-99.99,,2013-01-07 13:52:00,
2013-01-07 09:03:00,31.0,27.0,-100.00,SW,220,4.0,6.0,86,0.00,,,-99.99,,2013-01-07 14:03:00,
2013-01-07 09:12:00,31.0,27.0,-100.00,SW,225,4.0,7.0,85,0.00,,,-99.99,,2013-01-07 14:12:00,
2013-01-07 09:22:00,31.0,27.0,-100.00,SW,220,5.0,8.0,85,0.00,,,-99.99,,2013-01-07 14:22:00,
2013-01-07 09:33:00,31.0,27.0,-100.00,SW,215,4.0,6.0,85,0.00,,,-99.99,,2013-01-07 14:33:00,
2013-01-07 09:42:00,31.0,27.0,-100.00,SW,220,4.0,8.0,85,0.00,,,-99.99,,2013-01-07 14:42:00,
2013-01-07 09:53:00,31.0,27.0,-100.00,SW,215,6.0,9.0,84,0.00,,,-99.99,,2013-01-07 14:53:00,
2013-01-07 10:03:00,31.0,26.0,-100.00,SSW,200,6.0,7.0,84,0.00,,,-99.99,,2013-01-07 15:03:00,
2013-01-07 10:12:00,31.0,27.0,-100.00,SW,215,6.0,8.0,84,0.00,,,-99.99,,2013-01-07 15:12:00,
2013-01-07 10:22:00,31.0,27.0,-100.00,SSW,205,4.0,7.0,83,0.00,,,-99.99,,2013-01-07 15:22:00,
2013-01-07 10:33:00,31.0,27.0,-100.00,SSW,200,4.0,9.0,83,0.00,,,-99.99,,2013-01-07 15:33:00,
2013-01-07 10:43:00,31.0,27.0,-100.00,SW,215,4.0,9.0,83,0.00,,,-99.99,,2013-01-07 15:43:00,
2013-01-07 10:53:00,31.0,27.0,-100.00,South,180,5.0,7.0,82,0.00,,,-99.99,,2013-01-07 15:53:00,
2013-01-07 11:03:00,31.0,27.0,-100.00,SSW,210,6.0,9.0,82,0.00,,,-99.99,,2013-01-07 16:03:00,
2013-01-07 11:12:00,32.0,27.0,-100.00,SSW,200,6.0,9.0,81,0.00,,,-99.99,,2013-01-07 16:12:00,
2013-01-07 11:22:00,32.0,26.0,-100.00,SSW,195,7.0,9.0,80,0.00,,,-99.99,,2013-01-07 16:22:00,
2013-01-07 11:33:00,32.0,26.0,-100.00,South,190,7.0,10.0,79,0.00,,,-99.99,,2013-01-07 16:33:00,
2013-01-07 11:43:00,32.0,27.0,-100.00,South,190,4.0,9.0,78,0.00,,,-99.99,,2013-01-07 16:43:00,
2013-01-07 11:53:00,32.0,26.0,-100.00,South,180,6.0,9.0,77,0.00,,,-99.99,,2013-01-07 16:53:00,
2013-01-07 12:03:00,33.0,26.0,-100.00,South,185,6.0,9.0,77,0.00,,,-99.99,,2013-01-07 17:03:00,
2013-01-07 12:12:00,33.0,26.0,-100.00,South,175,6.0,9.0,76,0.00,,,-99.99,,2013-01-07 17:12:00,
2013-01-07 12:23:00,33.0,26.0,-100.00,South,190,8.0,11.0,74,0.00,,,-99.99,,2013-01-07 17:23:00,
2013-01-07 12:33:00,33.0,26.0,-100.00,SSW,205,9.0,12.0,73,0.00,,,-99.99,,2013-01-07 17:33:00,
2013-01-07 12:42:00,33.0,26.0,-100.00,South,185,6.0,9.0,72,0.00,,,-99.99,,2013-01-07 17:42:00,
2013-01-07 12:53:00,33.0,25.0,-100.00,SW,220,8.0,12.0,71,0.00,,,-99.99,,2013-01-07 17:53:00,
2013-01-07 13:03:00,34.0,25.0,-100.00,South,185,5.0,9.0,70,0.00,,,-99.99,,2013-01-07 18:03:00,
2013-01-07 13:12:00,34.0,24.0,-100.00,SSW,195,6.0,11.0,68,0.00,,,-99.99,,2013-01-07 18:12:00,
2013-01-07 13:23:00,33.0,24.0,-100.00,SSW,195,10.0,14.0,67,0.00,,,-99.99,,2013-01-07 18:23:00,
2013-01-07 13:33:00,34.0,24.0,-100.00,South,180,11.0,16.0,66,0.00,,,-99.99,,2013-01-07 18:33:00,
2013-01-07 13:42:00,33.0,23.0,-100.00,South,180,13.0,19.0,64,0.00,,,-99.99,,2013-01-07 18:42:00,
2013-01-07 13:52:00,34.0,23.0,-100.00,SSW,200,10.0,16.0,65,0.00,,,-99.99,,2013-01-07 18:52:00,
2013-01-07 14:03:00,34.0,24.0,-100.00,SSW,205,7.0,14.0,64,0.00,,,-99.99,,2013-01-07 19:03:00,
2013-01-07 14:12:00,34.0,23.0,-100.00,South,185,12.0,15.0,64,0.00,,,-99.99,,2013-01-07 19:12:00,
2013-01-07 14:23:00,34.0,23.0,-100.00,SSW,205,9.0,14.0,64,0.00,,,-99.99,,2013-01-07 19:23:00,
2013-01-07 14:33:00,34.0,24.0,-100.00,SSW,195,10.0,18.0,64,0.00,,,-99.99,,2013-01-07 19:33:00,
2013-01-07 14:43:00,34.0,23.0,-100.00,SW,215,7.0,16.0,64,0.00,,,-99.99,,2013-01-07 19:43:00,
2013-01-07 14:52:00,34.0,23.0,-100.00,SSW,210,9.0,14.0,63,0.00,,,-99.99,,2013-01-07 19:52:00,
2013-01-07 15:03:00,34.0,23.0,-100.00,SSW,205,9.0,12.0,63,0.00,,,-99.99,,2013-01-07 20:03:00,
2013-01-07 15:12:00,34.0,24.0,-100.00,South,190,7.0,12.0,64,0.00,,,-99.99,,2013-01-07 20:12:00,
2013-01-07 15:23:00,34.0,23.0,-100.00,South,180,11.0,16.0,64,0.00,,,-99.99,,2013-01-07 20:23:00,
2013-01-07 15:33:00,34.0,23.0,-100.00,SSE,165,11.0,16.0,64,0.00,,,-99.99,,2013-01-07 20:33:00,
2013-01-07 15:42:00,34.0,23.0,-100.00,South,180,9.0,14.0,64,0.00,,,-99.99,,2013-01-07 20:42:00,
2013-01-07 15:52:00,34.0,23.0,-100.00,SSW,200,11.0,15.0,64,0.00,,,-99.99,,2013-01-07 20:52:00,
2013-01-07 16:03:00,34.0,23.0,-100.00,SSW,200,7.0,12.0,64,0.00,,,-99.99,,2013-01-07 21:03:00,
2013-01-07 16:12:00,34.0,23.0,-100.00,SSE,165,11.0,16.0,63,0.00,,,-99.99,,2013-01-07 21:12:00,
2013-01-07 16:23:00,34.0,23.0,-100.00,SSE,160,10.0,16.0,63,0.00,,,-99.99,,2013-01-07 21:23:00,
2013-01-07 16:33:00,34.0,23.0,-100.00,SSW,195,7.0,14.0,63,0.00,,,-99.99,,2013-01-07 21:33:00,
2013-01-07 16:43:00,34.0,23.0,-100.00,SSE,160,7.0,12.0,63,0.00,,,-99.99,,2013-01-07 21:43:00,
2013-01-07 16:52:00,33.0,23.0,-100.00,South,190,11.0,14.0,64,0.00,,,-99.99,,2013-01-07 21:52:00,
2013-01-07 17:03:00,33.0,22.0,-100.00,South,175,10.0,14.0,64,0.00,,,-99.99,,2013-01-07 22:03:00,
2013-01-07 17:12:00,33.0,22.0,-100.00,South,180,9.0,14.0,65,0.00,,,-99.99,,2013-01-07 22:12:00,
2013-01-07 17:23:00,32.0,22.0,-100.00,South,170,8.0,12.0,66,0.00,,,-99.99,,2013-01-07 22:23:00,
2013-01-07 17:33:00,32.0,22.0,-100.00,South,170,9.0,12.0,66,0.00,,,-99.99,,2013-01-07 22:33:00,
2013-01-07 17:43:00,32.0,22.0,-100.00,South,175,9.0,12.0,67,0.00,,,-99.99,,2013-01-07 22:43:00,
2013-01-07 17:53:00,31.0,22.0,-100.00,South,180,6.0,12.0,67,0.00,,,-99.99,,2013-01-07 22:53:00,
2013-01-07 18:02:00,31.0,22.0,-100.00,South,170,7.0,14.0,68,0.00,,,-99.99,,2013-01-07 23:02:00,
2013-01-07 18:12:00,31.0,22.0,-100.00,South,170,6.0,12.0,68,0.00,,,-99.99,,2013-01-07 23:12:00,
2013-01-07 18:22:00,31.0,22.0,-100.00,SSE,165,7.0,9.0,69,0.00,,,-99.99,,2013-01-07 23:22:00,
2013-01-07 18:33:00,31.0,22.0,-100.00,SSE,150,6.0,12.0,69,0.00,,,-99.99,,2013-01-07 23:33:00,
2013-01-07 18:43:00,31.0,22.0,-100.00,SSE,160,8.0,11.0,69,0.00,,,-99.99,,2013-01-07 23:43:00,
2013-01-07 18:53:00,30.0,22.0,-100.00,SSE,155,8.0,12.0,69,0.00,,,-99.99,,2013-01-07 23:53:00,
2013-01-07 19:03:00,30.0,22.0,-100.00,SSE,160,7.0,12.0,70,0.00,,,-99.99,,2013-01-08 00:03:00,
2013-01-07 19:12:00,30.0,21.0,-100.00,SSE,160,7.0,11.0,70,0.00,,,-99.99,,2013-01-08 00:12:00,
2013-01-07 19:22:00,30.0,22.0,-100.00,SSE,155,9.0,12.0,71,0.00,,,-99.99,,2013-01-08 00:22:00,
2013-01-07 19:33:00,30.0,22.0,-100.00,SSE,160,9.0,12.0,71,0.00,,,-99.99,,2013-01-08 00:33:00,
2013-01-07 19:42:00,29.0,21.0,-100.00,SSE,160,7.0,12.0,71,0.00,,,-99.99,,2013-01-08 00:42:00,
2013-01-07 19:52:00,29.0,21.0,-100.00,South,170,8.0,12.0,71,0.00,,,-99.99,,2013-01-08 00:52:00,
2013-01-07 20:03:00,29.0,21.0,-100.00,SSE,165,9.0,12.0,72,0.00,,,-99.99,,2013-01-08 01:03:00,
2013-01-07 20:12:00,29.0,21.0,-100.00,SSE,165,9.0,14.0,72,0.00,,,-99.99,,2013-01-08 01:12:00,
2013-01-07 20:22:00,29.0,21.0,-100.00,SSE,155,7.0,11.0,72,0.00,,,-99.99,,2013-01-08 01:22:00,
2013-01-07 20:33:00,29.0,21.0,-100.00,SSE,165,6.0,11.0,73,0.00,,,-99.99,,2013-01-08 01:33:00,
2013-01-07 20:42:00,29.0,21.0,-100.00,South,170,8.0,12.0,73,0.00,,,-99.99,,2013-01-08 01:42:00,
2013-01-07 20:52:00,29.0,21.0,-100.00,SSE,160,9.0,12.0,73,0.00,,,-99.99,,2013-01-08 01:52:00,
2013-01-07 21:02:00,28.0,21.0,-100.00,SSE,165,7.0,11.0,73,0.00,,,-99.99,,2013-01-08 02:02:00,
2013-01-07 21:12:00,28.0,21.0,-100.00,SSE,155,7.0,12.0,74,0.00,,,-99.99,,2013-01-08 02:12:00,
2013-01-07 21:22:00,28.0,21.0,-100.00,SSE,155,7.0,12.0,75,0.00,,,-99.99,,2013-01-08 02:22:00,
2013-01-07 21:33:00,28.0,21.0,-100.00,SSE,155,4.0,8.0,74,0.00,,,-99.99,,2013-01-08 02:33:00,
2013-01-07 21:42:00,28.0,21.0,-100.00,SSE,155,7.0,10.0,75,0.00,,,-99.99,,2013-01-08 02:42:00,
2013-01-07 21:53:00,27.0,21.0,-100.00,SSE,155,6.0,9.0,75,0.00,,,-99.99,,2013-01-08 02:53:00,
2013-01-07 22:03:00,27.0,21.0,-100.00,SSE,155,6.0,8.0,76,0.00,,,-99.99,,2013-01-08 03:03:00,
2013-01-07 22:12:00,27.0,21.0,-100.00,SSE,160,7.0,11.0,76,0.00,,,-99.99,,2013-01-08 03:12:00,
2013-01-07 22:22:00,27.0,21.0,-100.00,SSE,165,9.0,11.0,76,0.00,,,-99.99,,2013-01-08 03:22:00,
2013-01-07 22:32:00,27.0,21.0,-100.00,SSE,160,7.0,11.0,77,0.00,,,-99.99,,2013-01-08 03:32:00,
2013-01-07 22:43:00,27.0,21.0,-100.00,SSE,160,8.0,12.0,77,0.00,,,-99.99,,2013-01-08 03:43:00,
2013-01-07 22:52:00,27.0,21.0,-100.00,SSE,150,7.0,10.0,77,0.00,,,-99.99,,2013-01-08 03:52:00,
2013-01-07 23:02:00,26.0,21.0,-100.00,SE,145,6.0,9.0,78,0.00,,,-99.99,,2013-01-08 04:02:00,
2013-01-07 23:12:00,27.0,21.0,-100.00,SSE,160,9.0,12.0,78,0.00,,,-99.99,,2013-01-08 04:12:00,
2013-01-07 23:22:00,26.0,21.0,-100.00,SSE,155,7.0,14.0,78,0.00,,,-99.99,,2013-01-08 04:22:00,
2013-01-07 23:32:00,26.0,21.0,-100.00,SSE,165,9.0,14.0,79,0.00,,,-99.99,,2013-01-08 04:32:00,
2013-01-07 23:42:00,26.0,21.0,-100.00,SSE,160,7.0,15.0,79,0.00,,,-99.99,,2013-01-08 04:42:00,
2013-01-07 23:52:00,26.0,21.0,-100.00,South,170,7.0,13.0,79,0.00,,,-99.99,,2013-01-08 04:52:00,